Погода в Молодежном

Казахстан     50°43′33″N   73°31′44″E
темп.,
°C
ветер,
м/с
пор.,
м/с
влажн.,
%
обл.,
%
осадки,
мм/ч
давл.,
гПа
погр.,
м
24 октября, вс
вс2400:00+8зюз101873100 0.0 1024684
03:00+6зюз9176894 0.0 1025519
06:00+5юз8166957 0.0 1026429
09:00+5юз7156626 0.0 1026460
12:00+10зюз912547 0.0 1026750
15:00+12зюз811455 0.0 1024985
18:00+9юз610475 0.0 1024268
21:00+7юз512485 0.0 1025254
25 октября, пн
пн2500:00+6юз513495 0.0 1024253
03:00+5юз5135215 0.0 1022250
06:00+5юз5125499 0.0 1022238
09:00+6юз5115299 0.0 1021285
12:00+10юз583974 0.0 1020441
15:00+12юз5635100 0.0 1019663
18:00+10ююз3444100 0.0 101853
21:00+8ююз3448100 0.0 101862
26 октября, вт
вт2600:00+8ююз3549100 0.0 101668
03:00+7ююз41050100 0.0 1014170
06:00+5ююз5115299 0.0 1012183
09:00+6ююз51349100 0.0 1011293
12:00+10юз81137100 0.0 1009593
15:00+11з81037100 0.0 1010974
18:00+8сз7960100 0.0 1013540
21:00+3ссз61094100 0.1 1019589
27 октября, ср
ср2700:00+1с6764100 0.1 1023621
03:00−2с456971 0.0 1026452
06:00−3с34690 0.0 102893
09:00−3ссв22665 0.0 1030125
12:000с12420 0.0 1030672
15:00+2ссз12305 0.0 1029929
18:00+1ссв113551 0.0 103010
21:00−1з01405 0.0 103110
28 октября, чт
чт2800:00−2юз224222 0.0 103110
03:00−2зюз22440 0.0 103112
06:00−3зюз33445 0.0 103119
09:00−1юз34415 0.0 1031105
12:00+4юз56275 0.0 1030568
15:00+6зюз67245 0.0 1028835
18:00+3зюз47330 0.0 1028114
21:00+1юз410385 0.0 1028169